Wind_Speed
15 15 16 16 15 15 15 16 15 15 14 14 13 13 13 13 12 12 12 12 11 9 9 8 7 7 7 7 7 6 6 6 6 6 7 8 8 9 9 9 10 10 9 9 10 11 11 10 10 10 10 11 11 11 12 12 13 14 15 17 17 17 17 18 17 16 16 17 18 18 18 17 17 16 17 18 18 19 20 19 18 17 17 18 18
16 16 16 17 16 16 16 17 17 16 16 15 14 14 14 14 13 13 13 12 11 10 10 10 9 8 8 8 8 7 7 6 7 7 8 9 9 9 10 11 11 11 10 10 11 12 11 11 11 10 11 11 10 11 12 14 14 15 16 18 18 18 19 19 18 17 17 17 19 19 19 17 16 15 16 17 16 16 17 18 18 18 18 18 17
17 16 17 17 17 17 17 18 18 18 18 17 16 15 16 15 15 14 13 12 11 11 12 11 10 10 9 9 9 8 8 7 8 8 9 10 11 10 10 11 12 13 12 11 12 13 13 12 11 9 10 10 10 11 12 14 14 15 16 17 17 17 19 20 19 19 19 19 20 19 18 16 15 15 16 17 16 15 16 18 18 17 18 18 17
18 18 18 18 17 17 18 18 18 19 19 18 18 17 17 17 16 15 15 14 13 13 13 12 11 11 10 10 10 10 10 10 10 11 11 11 11 12 12 11 13 14 13 12 12 14 15 13 10 9 10 12 13 13 13 13 14 14 16 16 16 17 19 20 20 20 21 20 20 19 18 18 18 18 17 17 16 15 16 17 17 16 17 18 18
21 21 20 20 19 19 19 19 19 19 20 20 19 19 18 18 17 17 16 15 15 14 13 13 12 11 11 11 11 12 13 12 12 12 11 11 11 12 12 12 12 13 13 14 15 15 14 13 12 12 12 13 14 13 14 14 15 16 17 17 18 19 20 20 20 21 21 20 20 21 21 21 21 19 17 16 15 15 16 17 17 17 17 18 18
23 24 22 20 20 20 19 19 19 19 20 20 21 20 20 19 18 18 17 16 16 16 15 14 13 12 12 12 13 14 14 14 13 12 11 12 12 12 12 12 12 13 13 15 16 16 16 16 14 13 13 14 14 15 16 16 18 19 20 19 19 21 21 21 21 21 20 20 21 21 20 20 19 18 17 16 16 15 16 17 17 18 19 19 19
25 26 24 22 22 21 20 20 19 20 20 21 21 21 21 21 20 19 19 18 17 17 16 16 15 14 13 14 15 16 15 15 14 13 12 13 13 12 12 13 14 14 14 15 15 15 16 16 15 14 14 15 16 17 18 19 20 21 21 20 20 20 21 20 20 20 19 19 19 18 17 16 16 16 16 16 17 16 17 17 18 19 19 18 18
26 26 26 25 23 22 21 21 21 20 20 21 21 21 21 21 21 21 21 20 20 19 17 17 17 16 15 16 17 17 16 15 14 13 14 13 12 12 13 13 13 13 14 14 14 15 16 16 15 15 15 16 16 17 19 20 20 20 20 21 21 20 20 19 18 19 18 16 16 15 14 14 14 16 17 18 18 17 16 16 16 17 18 18 19
27 27 28 27 26 24 23 24 23 22 22 22 21 21 22 21 20 21 21 21 21 21 20 19 19 17 17 18 19 17 16 14 13 14 14 13 13 13 14 14 13 12 14 15 15 16 17 15 15 16 16 17 17 17 18 19 19 20 20 19 18 17 15 14 12 14 13 12 13 13 12 12 14 15 16 16 15 14 14 14 15 16 18 18 20
31 30 30 30 28 26 25 26 25 24 24 24 23 23 24 23 22 23 23 22 21 20 20 20 19 19 20 20 19 16 14 14 14 15 14 13 15 15 14 14 14 13 15 16 16 17 17 16 17 18 18 19 20 19 18 18 18 18 16 13 12 11 9 9 7 5 6 6 8 9 10 12 13 14 14 15 14 14 15 15 16 17 17 17 18
35 35 34 33 30 27 27 27 28 27 27 27 27 25 25 25 25 26 25 23 21 20 19 19 20 21 22 21 18 16 15 14 14 15 14 14 16 16 15 16 16 15 16 17 17 17 18 18 19 20 20 20 21 19 17 16 16 14 11 9 8 7 7 7 5 4 5 7 8 10 13 14 15 16 16 16 16 16 16 16 16 15 15 15 15
37 35 32 31 30 28 30 30 30 30 30 30 30 28 26 26 27 29 26 24 23 22 21 21 22 23 23 21 20 18 16 15 14 15 15 16 17 17 17 17 17 17 17 18 18 18 19 19 20 20 20 20 19 17 15 13 12 11 9 8 8 8 9 9 8 8 10 11 11 13 14 15 16 16 16 16 15 15 15 15 15 15 16 16 16
34 29 27 29 29 29 32 33 34 33 32 32 32 31 30 31 32 31 28 27 26 24 23 24 25 26 25 23 22 20 18 16 15 17 17 18 18 18 18 18 17 17 18 18 18 19 19 20 19 19 19 18 17 14 12 10 10 9 9 9 10 10 11 11 11 12 12 12 13 14 14 15 15 15 15 15 15 15 15 15 16 16 18 19 20
31 27 28 30 30 31 32 34 36 36 36 37 36 33 33 35 36 34 31 31 30 27 27 27 27 27 27 25 23 21 18 17 17 19 19 19 20 19 18 17 17 17 17 17 17 18 19 18 18 18 18 17 14 11 10 9 9 10 10 11 11 12 11 12 12 13 13 14 15 15 15 15 15 15 16 16 16 16 16 16 17 17 19 21 23
25 26 28 29 32 34 33 34 36 37 39 41 39 34 33 35 37 36 33 32 30 29 29 28 26 27 27 25 24 23 21 20 21 21 21 21 20 19 17 17 16 16 16 16 16 17 17 17 18 18 18 15 12 10 9 9 9 10 11 12 12 13 13 13 14 14 15 15 16 16 16 16 15 16 16 16 17 17 18 18 18 19 19 21 24
19 22 24 26 30 34 34 35 37 39 41 41 38 35 33 34 36 37 34 32 31 32 32 28 25 26 26 25 24 25 24 23 22 21 21 20 18 17 16 15 15 15 15 15 14 15 16 17 18 18 16 13 11 10 10 11 11 12 12 13 13 14 15 15 15 14 15 15 15 15 15 15 15 15 15 16 16 17 18 19 20 20 20 20 22
18 19 20 23 27 31 33 35 37 39 40 40 36 34 34 35 38 38 34 31 32 33 31 29 27 27 27 27 27 26 25 24 23 23 21 19 17 17 16 15 15 16 16 15 14 15 17 18 17 16 15 13 12 12 13 13 13 12 12 13 13 13 14 13 13 13 13 13 13 14 14 14 15 15 16 17 17 18 18 19 19 20 20 20 21
17 16 17 20 23 25 28 31 35 38 40 38 35 33 35 37 38 38 33 31 32 32 31 30 28 28 30 31 29 28 27 26 25 24 22 19 16 16 17 17 17 16 16 17 18 18 18 18 17 15 14 13 13 13 13 12 12 11 11 12 12 11 11 11 11 11 11 12 12 13 14 14 15 16 16 17 17 18 18 19 19 20 21 22 23
12 12 14 15 16 18 20 24 29 33 35 34 32 32 34 34 34 34 32 31 33 34 33 31 31 32 33 31 29 27 25 25 25 24 21 18 18 18 19 21 21 21 21 22 20 18 16 15 14 13 13 12 12 12 11 10 10 10 10 10 10 10 9 9 10 10 11 12 12 13 14 15 15 16 16 17 17 18 19 20 21 22 23 24 25
7 7 9 11 13 15 16 19 23 27 28 28 28 30 32 32 31 32 32 33 34 35 33 32 32 31 30 28 26 23 22 22 21 19 17 16 16 16 16 17 18 18 17 15 12 11 11 11 11 11 11 11 11 10 10 9 9 9 9 8 8 8 9 9 10 11 11 12 13 14 14 15 15 16 16 17 18 19 20 21 22 23 24 25 25
3 2 3 6 8 10 11 13 15 18 19 20 22 25 27 27 26 26 28 29 29 29 28 27 26 25 24 24 20 16 16 17 13 11 13 13 11 9 10 10 10 9 8 8 7 8 9 10 10 10 9 9 9 9 9 9 9 8 8 7 8 9 10 10 11 11 12 13 13 14 14 15 15 16 17 18 20 20 21 22 23 24 25 26 27
4 6 5 4 3 3 4 6 6 8 9 10 13 16 16 17 17 19 22 24 24 24 23 22 23 22 20 18 13 9 12 12 8 8 11 12 10 9 10 9 8 7 8 8 9 9 10 9 9 8 8 8 8 8 8 7 7 7 7 8 9 9 10 11 11 12 12 13 13 14 15 16 17 18 19 20 21 22 23 24 25 26 27 28 29
6 8 9 8 7 6 5 5 5 5 5 4 5 7 8 11 13 14 17 18 17 15 13 13 15 17 14 12 10 8 9 11 11 11 13 12 11 11 9 8 8 8 8 9 9 9 9 8 8 8 8 8 8 7 7 6 7 7 8 9 9 10 11 11 11 12 12 13 14 15 16 18 18 19 20 21 22 23 24 25 26 26 27 28 29
5 7 7 7 7 6 7 8 9 9 9 9 9 8 8 9 9 8 8 8 8 8 8 7 6 8 9 10 11 13 13 13 13 11 11 11 10 9 7 7 8 8 8 8 8 8 8 8 8 8 7 6 6 6 6 7 8 9 9 10 10 11 11 11 12 13 13 14 15 16 17 18 19 20 21 22 23 24 25 26 26 27 28 29 29
7 8 6 6 6 5 7 10 12 12 12 12 13 14 14 15 14 12 13 13 13 13 12 10 11 12 13 16 17 15 12 11 11 10 10 10 9 9 9 9 9 9 8 8 8 8 8 7 6 6 5 5 6 6 7 8 8 9 9 10 10 10 11 11 12 13 14 15 16 17 18 19 20 21 21 21 22 23 24 25 26 27 28 28 29
5 5 3 2 3 5 8 11 12 12 12 12 13 14 14 15 14 13 14 14 13 12 11 11 13 14 15 16 15 12 10 11 11 11 11 11 11 10 10 9 9 8 8 8 7 7 6 5 5 5 5 6 7 7 7 7 7 8 8 8 9 10 11 12 13 14 15 16 17 18 19 20 21 22 22 23 22 22 24 26 26 27 27 28 28
8 6 5 5 5 4 6 8 9 9 9 10 13 13 12 13 14 14 15 14 13 11 10 10 12 12 13 13 12 11 10 11 11 12 11 11 10 9 9 8 7 7 6 6 6 5 5 5 5 6 6 7 8 8 8 7 7 7 7 8 9 10 12 13 14 15 16 16 17 18 19 19 21 21 23 24 24 24 25 26 27 27 27 26 26
11 10 9 8 7 7 7 7 8 7 5 7 10 10 10 11 12 11 11 11 10 11 11 10 10 10 10 10 9 9 10 11 11 11 10 9 9 8 7 6 6 6 6 5 5 5 6 6 6 7 8 8 8 8 7 6 6 7 8 9 10 11 12 13 14 14 15 16 17 18 18 20 21 22 23 25 26 26 26 27 27 27 27 26 26
14 14 14 12 10 10 11 11 12 11 8 7 9 9 8 9 9 7 7 8 10 12 12 11 10 9 9 8 8 8 8 10 10 10 9 9 8 7 6 6 6 6 6 6 6 6 7 7 7 8 8 8 8 7 6 6 6 6 8 10 11 12 13 13 13 14 15 16 17 18 19 20 21 22 24 25 27 28 28 28 27 27 26 25 24
14 14 15 14 12 11 12 14 14 12 9 8 10 10 8 7 9 8 8 9 10 10 10 9 10 9 9 9 9 9 9 9 10 9 8 8 7 7 6 6 6 6 6 6 6 7 7 7 7 8 8 8 7 6 6 8 9 9 10 11 12 12 13 14 14 15 16 16 17 18 20 21 22 24 25 27 28 28 28 27 25 24 23 21 20
9 9 9 10 9 8 9 11 12 10 9 9 10 9 7 8 10 11 11 11 11 10 10 10 11 11 11 11 10 10 10 9 9 8 8 8 7 7 7 7 6 6 6 7 7 7 7 7 6 7 8 8 7 7 7 9 11 12 12 12 13 13 13 14 15 15 16 17 18 19 21 23 24 25 26 27 27 27 26 24 22 21 20 19 18
2 3 4 6 7 7 8 9 9 9 8 9 9 9 9 9 10 11 11 12 11 11 11 11 11 12 12 11 10 10 9 9 8 8 8 8 7 7 7 7 7 7 7 7 7 7 6 7 7 8 8 7 7 9 9 10 11 12 12 12 12 13 13 13 14 15 16 18 19 21 22 24 25 26 26 26 25 25 23 21 20 19 18 18 19
3 4 6 7 7 7 7 8 8 8 9 9 9 10 10 10 9 9 10 10 11 11 12 11 11 11 10 10 10 10 10 10 10 9 8 8 7 7 7 7 7 6 6 6 6 6 7 8 8 8 7 6 6 8 10 11 12 12 12 12 11 11 12 13 14 15 17 19 21 22 23 24 25 25 25 25 24 23 22 21 20 19 19 19 21
4 6 7 8 7 7 7 7 7 8 9 9 9 10 10 11 10 10 9 9 9 10 10 10 9 9 9 9 10 10 10 10 9 8 8 7 7 7 6 6 6 6 6 7 7 7 9 9 8 8 8 8 8 9 10 10 11 11 11 11 11 11 12 14 15 17 18 20 21 21 22 23 24 25 25 25 24 24 23 22 21 20 20 21 22
9 8 8 7 7 7 7 7 7 8 9 9 10 10 11 11 12 11 10 10 9 9 9 9 8 8 8 8 9 9 8 8 7 7 7 7 7 7 6 7 7 7 7 8 8 9 9 8 7 8 9 9 9 9 9 10 11 11 11 11 12 13 14 15 16 17 18 19 20 21 22 23 25 26 26 26 25 24 23 22 21 21 21 22 23
12 11 10 8 8 8 8 7 7 9 10 11 11 11 12 12 12 12 12 11 11 11 10 9 8 8 7 7 7 7 7 6 6 6 7 6 7 7 7 7 8 8 8 9 9 10 9 8 8 9 9 9 9 9 10 10 11 11 12 13 13 14 14 15 16 17 18 19 21 22 24 25 25 26 26 26 25 24 23 22 21 21 22 23 24
12 12 12 12 10 10 10 10 10 12 13 13 13 13 13 13 13 13 13 13 13 12 11 10 9 9 8 8 7 6 6 6 6 7 7 7 8 8 8 8 9 9 9 10 10 10 9 9 8 8 8 9 10 11 11 12 11 11 11 12 12 13 13 14 16 18 19 20 21 23 24 25 26 26 26 25 25 24 22 22 22 22 23 24 25
11 11 11 11 11 11 12 12 13 13 14 14 14 14 14 14 14 14 14 13 12 12 11 11 10 10 9 9 8 7 7 7 8 8 9 9 9 10 10 10 11 11 11 11 11 10 9 8 7 8 9 10 11 12 12 12 11 11 11 11 11 12 14 16 17 18 19 21 22 23 24 26 26 26 26 25 24 24 23 22 22 22 23 24 25
11 10 10 11 11 11 12 12 13 14 14 14 14 14 14 14 14 14 13 13 13 13 12 11 11 11 10 10 9 8 8 9 9 10 10 10 11 11 12 12 13 12 11 10 10 9 8 7 8 9 11 11 11 11 11 11 10 11 11 12 12 14 16 17 18 19 20 22 23 23 24 25 26 26 26 25 24 23 23 22 22 22 23 24 25
11 11 11 11 11 11 11 12 12 12 13 13 14 14 13 14 14 14 13 13 13 13 13 12 12 11 10 10 10 10 10 11 11 11 11 11 12 12 13 14 13 12 11 10 10 9 8 7 8 10 11 11 11 11 10 10 10 10 11 12 13 14 16 17 19 20 21 22 23 24 24 25 26 25 24 23 23 22 22 22 22 22 23 24 24
10 11 11 11 10 10 11 12 12 12 12 13 14 14 14 14 15 14 14 14 14 14 14 14 13 12 12 12 12 12 12 12 12 12 13 13 13 13 14 14 14 13 12 11 10 9 8 8 9 10 10 10 10 11 10 10 11 11 11 12 14 15 16 18 19 21 21 22 23 24 25 26 26 26 24 22 21 21 21 21 21 22 22 22 22
10 10 10 10 9 10 11 12 12 12 13 14 14 14 14 15 15 15 15 15 15 15 15 15 14 13 14 14 13 13 13 13 13 13 13 13 13 14 15 15 14 13 12 11 10 9 8 8 10 10 10 9 10 11 10 11 11 11 12 13 15 16 18 19 20 21 21 22 23 23 24 24 26 26 24 22 21 21 21 21 21 22 22 21 19
10 10 10 10 9 9 10 11 12 13 13 14 14 15 14 15 15 16 16 16 15 16 16 16 15 15 15 14 13 13 14 14 13 13 13 12 12 14 14 14 14 13 12 11 10 9 9 10 11 12 11 11 11 11 11 11 12 12 13 14 15 17 18 19 20 21 22 23 23 24 24 24 25 25 24 22 21 21 21 21 21 21 20 19 17
11 11 11 10 10 10 11 12 12 13 13 14 15 15 15 15 16 17 17 17 15 14 15 16 15 14 14 13 12 12 13 13 13 13 12 12 12 14 15 15 15 14 12 11 10 10 10 12 12 12 11 12 12 12 12 11 12 13 13 14 15 17 18 19 20 21 22 23 24 24 25 25 25 25 24 22 21 20 20 21 21 20 18 17 15
13 12 12 12 12 12 12 13 13 13 14 15 16 16 16 16 17 17 17 17 15 13 14 15 14 12 11 12 11 11 11 12 12 13 13 14 14 16 16 17 17 14 12 12 12 11 11 13 13 12 12 12 13 12 12 12 11 13 14 15 15 16 18 19 20 20 21 23 23 24 24 25 24 23 22 21 20 20 20 20 20 18 16 14 13
15 15 14 13 14 14 14 14 14 14 14 15 15 15 15 15 16 16 16 16 15 13 13 16 15 13 12 12 12 12 13 14 15 15 16 17 17 18 19 20 18 15 13 14 14 12 12 13 14 13 13 13 12 12 12 12 12 13 14 15 16 17 18 19 20 20 21 22 23 23 24 24 24 22 21 20 19 19 19 19 18 16 14 12 11
18 18 16 15 15 15 15 15 15 14 14 14 14 14 14 14 15 15 14 14 14 13 14 16 17 15 14 14 15 15 15 16 17 18 19 19 19 20 22 21 18 16 16 16 16 14 13 13 14 14 14 13 13 12 12 12 12 13 15 16 17 18 18 18 19 20 21 21 22 22 23 22 22 21 20 19 19 18 18 17 15 13 11 10 10
20 19 18 17 17 16 15 15 15 15 15 14 13 14 14 14 14 14 14 15 15 14 15 17 19 17 16 16 17 17 17 17 19 21 22 21 21 22 22 21 19 18 19 20 19 17 15 14 15 15 14 13 13 13 12 11 11 13 15 16 17 18 19 19 19 20 21 21 21 22 22 21 20 20 19 18 17 17 16 15 13 11 9 9 10
20 20 19 19 19 18 17 17 16 16 15 15 15 15 16 16 16 16 17 17 17 16 16 18 20 19 18 18 18 17 17 18 20 21 22 22 21 21 22 22 21 21 21 20 19 18 16 16 16 15 14 13 13 13 13 13 12 13 15 16 17 18 18 19 19 20 21 21 21 22 22 21 19 18 17 17 16 15 14 12 10 9 9 10 11
22 21 21 22 21 21 20 19 18 17 16 16 16 17 17 17 17 17 18 19 19 18 17 19 21 21 20 19 18 18 16 16 17 18 18 19 21 22 23 23 22 21 21 20 19 18 17 17 16 15 14 14 14 13 13 13 13 14 16 17 17 18 18 18 18 19 20 21 21 22 21 21 19 18 16 16 15 14 12 10 8 8 9 10 11
24 24 24 24 24 23 22 22 20 19 18 17 17 18 18 18 18 19 20 20 21 22 19 18 20 21 20 19 19 18 17 16 16 17 18 18 21 23 25 24 21 20 20 20 20 19 18 18 17 15 14 15 14 13 13 13 14 15 16 16 17 18 18 17 17 18 19 20 21 21 20 20 19 17 15 14 13 12 10 8 7 8 9 10 11
Wind_Direction
213 210 207 207 208 206 204 205 210 215 215 216 215 214 215 217 218 218 218 222 222 222 227 227 226 228 233 240 243 245 251 254 253 252 253 256 257 258 264 269 271 272 273 272 271 269 267 274 281 283 281 280 283 289 295 300 303 303 302 305 305 304 306 309 311 314 315 310 305 305 307 306 305 307 309 310 311 311 310 310 310 311 310 308 308
218 215 211 210 211 210 209 208 209 213 215 216 216 216 218 219 221 221 220 222 221 220 224 228 232 237 239 244 248 250 256 262 264 262 260 262 264 263 267 273 277 280 281 274 270 270 270 268 268 271 281 290 296 299 299 297 298 300 304 305 304 304 307 308 309 311 312 310 309 309 309 306 304 306 308 308 309 309 309 309 307 308 307 304 305
219 220 216 214 213 213 214 213 213 214 216 216 216 217 220 222 222 223 222 223 224 225 225 223 226 235 242 249 255 257 257 258 259 261 263 266 269 272 276 281 284 283 280 274 272 274 270 267 269 281 296 301 296 295 297 295 296 302 304 303 301 305 310 309 306 306 308 309 310 310 310 308 306 307 308 307 307 308 307 304 303 305 304 303 307
218 221 219 216 216 216 217 216 216 218 219 219 219 219 222 224 224 226 227 226 226 227 227 224 222 229 237 246 256 260 257 254 254 255 258 262 269 277 281 285 287 287 288 283 274 268 266 275 295 300 293 292 292 296 301 301 301 300 300 303 307 310 312 310 306 304 305 305 307 308 309 309 307 307 309 309 310 310 308 304 304 306 304 305 309
217 221 220 216 216 219 220 218 217 219 221 222 223 223 225 227 227 228 230 231 230 229 231 231 228 230 237 243 250 256 255 253 254 256 259 265 272 280 285 287 289 290 289 280 271 272 283 300 310 300 291 297 302 304 304 304 303 302 304 310 312 309 308 309 307 304 302 302 303 304 306 305 304 305 306 307 307 306 304 302 303 304 304 306 309
220 223 222 219 219 221 223 222 221 221 221 223 226 226 227 230 231 232 233 234 235 234 233 233 233 234 238 239 242 249 254 256 260 264 268 270 272 279 287 291 293 292 289 283 284 297 309 311 306 302 304 307 307 305 304 305 305 304 306 309 307 305 305 305 303 301 298 298 300 302 303 303 303 303 301 300 299 299 299 300 301 300 302 306 308
221 225 227 224 223 225 226 227 227 226 223 223 226 228 230 231 233 236 235 234 236 237 237 238 237 235 236 238 239 242 246 251 258 262 265 270 275 283 291 295 299 300 296 294 300 308 311 309 306 305 306 304 304 304 304 303 303 303 305 305 304 304 304 303 300 295 293 294 296 300 303 302 301 299 299 299 300 300 301 304 305 304 306 309 310
222 227 231 229 227 230 232 231 232 232 230 228 226 229 233 234 235 238 239 238 238 239 240 242 241 238 237 240 240 241 244 247 253 259 261 268 277 283 286 291 299 302 300 301 306 306 306 309 308 305 304 302 301 302 302 302 301 302 304 306 307 308 308 304 293 285 287 291 294 300 307 307 303 301 301 301 301 301 305 311 314 315 318 319 316
228 230 233 232 230 232 234 234 234 235 236 235 230 227 231 233 232 235 238 238 238 238 238 238 241 241 239 239 240 243 246 248 253 260 263 269 274 277 284 291 296 298 297 300 306 306 308 311 309 307 306 303 301 303 303 302 302 303 306 309 313 315 314 310 296 284 284 288 291 301 310 310 308 307 308 309 308 308 311 315 319 320 323 323 319
231 233 235 235 234 234 236 236 236 236 238 239 234 229 231 234 230 229 233 235 237 239 238 236 238 240 241 241 242 244 248 249 252 259 264 269 273 276 283 289 291 293 296 299 304 307 309 310 308 308 306 301 301 304 304 303 304 305 309 314 318 320 319 319 319 307 296 292 297 309 317 317 318 320 322 323 321 320 319 319 320 321 322 322 318
228 230 231 232 233 234 237 238 238 238 238 240 240 235 233 237 238 236 237 240 244 245 244 243 243 243 244 245 245 245 248 250 254 260 265 268 272 276 281 285 288 294 298 299 302 305 305 305 304 305 303 300 301 304 305 306 306 309 314 314 311 315 318 316 317 316 312 309 309 313 317 319 321 323 325 326 324 323 322 320 322 321 320 318 314
230 230 233 237 238 237 238 239 239 240 239 240 242 239 234 235 239 241 242 245 246 244 242 240 242 244 246 248 249 248 250 252 257 263 265 268 271 276 281 285 290 295 296 297 300 302 301 301 302 301 301 301 302 303 305 307 309 314 317 308 304 310 313 311 308 310 314 314 313 316 318 320 324 326 328 329 328 327 326 325 325 323 320 317 313
237 236 238 243 244 242 242 242 241 241 242 242 242 241 238 235 235 236 237 240 242 241 239 238 239 242 243 246 250 252 253 256 260 263 265 268 272 277 282 286 288 290 292 294 298 299 298 299 299 299 300 302 302 303 306 309 312 311 305 300 304 309 309 309 312 316 321 323 324 326 328 329 331 332 332 332 331 329 329 328 327 324 320 317 315
242 241 241 245 247 245 244 244 245 244 243 241 239 239 242 243 241 236 231 233 236 237 236 235 236 241 243 245 250 253 255 257 261 265 268 272 275 278 282 284 285 285 288 291 294 295 296 297 297 299 301 301 300 304 309 309 306 299 295 296 301 305 306 309 312 315 318 321 323 326 328 328 329 329 329 329 328 328 327 326 324 322 319 318 316
249 251 250 249 250 249 245 244 244 244 244 242 239 238 244 248 247 241 234 234 235 237 238 237 236 242 246 248 251 254 256 258 260 263 268 272 275 278 278 278 279 281 282 285 290 293 295 296 296 298 299 297 295 298 302 299 293 290 291 293 296 299 302 304 307 310 312 315 318 320 322 323 324 324 324 325 324 324 323 322 320 320 321 321 317
256 257 255 251 250 250 247 244 243 243 244 244 241 241 245 247 245 241 237 236 237 238 242 244 241 243 249 252 253 253 253 254 257 260 264 268 270 271 269 268 270 273 275 278 284 290 293 294 296 296 293 287 282 286 290 287 285 286 289 291 293 296 299 302 306 309 311 314 316 317 319 320 320 321 322 321 321 321 321 320 320 321 322 320 315
265 260 257 254 252 250 247 245 245 244 245 245 241 241 244 243 242 242 239 238 240 241 243 246 244 244 248 249 249 250 252 254 257 258 259 261 261 261 264 265 265 267 271 274 279 286 289 290 292 292 284 276 275 284 289 287 287 290 292 294 296 298 300 304 306 309 312 314 316 317 318 319 320 321 321 320 320 321 321 320 319 318 317 315 313
269 257 250 251 252 250 246 245 245 245 245 246 245 246 246 242 242 246 245 243 245 246 244 245 244 245 247 247 246 249 252 254 257 259 259 256 250 251 258 263 264 268 276 284 288 288 285 282 281 280 274 272 279 287 290 291 293 295 296 297 299 300 302 305 307 311 313 313 313 314 316 318 319 320 321 321 321 321 320 319 318 317 316 316 316
271 255 247 249 251 250 246 243 245 245 244 246 247 248 249 247 248 251 251 247 247 249 247 244 244 246 246 246 246 248 252 258 260 260 258 253 248 250 256 260 263 269 278 284 284 280 274 270 269 268 267 272 279 283 285 288 290 291 292 294 296 298 302 305 307 308 309 309 312 315 317 320 321 322 322 322 322 321 320 319 319 319 319 318 318
272 245 239 244 248 250 246 241 243 247 248 249 248 246 247 249 248 247 247 246 246 248 247 244 243 245 245 245 244 245 254 263 257 246 244 250 254 256 259 261 262 265 268 269 266 262 261 261 260 261 265 270 274 276 278 280 281 282 286 291 294 298 301 302 305 308 311 315 319 321 323 323 322 322 322 322 322 322 321 321 321 320 320 320 319
272 217 210 224 234 241 240 234 235 241 246 249 247 243 243 243 239 236 240 245 245 245 246 243 244 249 252 249 243 238 245 252 250 243 248 249 242 241 252 258 255 248 242 238 240 248 254 257 260 261 264 267 269 270 271 271 273 277 281 287 292 297 301 307 313 318 321 324 324 323 323 322 322 323 323 323 324 324 323 323 323 323 323 323 324
78 78 84 107 146 186 207 206 204 213 226 237 240 238 237 233 228 226 232 238 240 243 245 245 247 249 246 237 225 220 231 234 234 240 235 221 217 240 260 261 250 240 239 239 242 246 250 255 258 258 259 261 261 263 264 265 270 277 284 291 298 305 312 318 323 325 325 324 323 323 324 325 326 326 326 326 326 326 326 327 327 328 328 327 327
79 79 83 94 105 113 126 132 129 134 146 169 197 212 216 214 214 215 216 219 223 228 228 229 233 231 222 211 205 202 197 187 181 194 209 220 242 258 256 246 240 240 241 241 241 244 246 249 251 251 254 256 256 259 264 270 278 287 295 304 311 319 324 326 325 324 324 323 325 326 327 328 328 328 327 327 328 328 329 330 330 330 329 328 327
100 102 96 100 111 117 124 126 121 115 111 108 112 118 130 145 152 146 139 140 138 134 134 143 170 184 182 172 164 160 161 169 183 205 228 244 251 243 229 229 232 230 231 233 235 238 242 244 248 252 255 258 262 269 277 285 296 305 313 320 325 327 326 324 323 323 324 326 327 327 327 326 327 328 329 330 332 332 331 331 330 329 328 327 325
126 123 109 99 105 114 128 135 131 124 118 112 110 110 112 118 125 123 112 108 113 120 127 132 136 145 158 164 165 170 182 198 213 228 237 235 229 225 225 223 219 219 225 230 235 241 245 249 253 257 263 270 278 286 293 302 311 317 323 325 325 323 321 320 322 323 325 326 326 326 327 328 329 330 331 333 334 333 331 329 329 328 326 325 324
170 160 160 147 136 129 131 136 136 128 124 127 129 124 119 120 126 127 120 118 125 134 140 142 144 153 165 173 181 195 207 214 221 229 230 226 224 224 219 215 216 223 230 235 241 246 248 250 253 259 268 277 284 289 296 304 311 316 318 317 315 316 318 321 324 325 326 327 328 329 331 331 332 332 331 332 334 334 331 329 329 328 326 325 324
222 229 241 241 231 204 166 156 151 138 129 138 146 143 138 136 134 131 129 129 133 141 150 153 154 162 172 179 189 201 207 214 221 223 221 218 215 213 211 214 222 228 232 238 240 239 240 245 254 263 271 278 284 289 295 300 304 306 306 307 311 316 321 324 326 326 327 328 329 331 332 333 333 334 333 333 334 334 333 331 330 329 328 327 327
239 249 260 258 246 237 227 213 202 197 186 168 161 155 151 151 149 146 148 155 160 165 173 175 172 175 184 192 200 208 211 212 211 209 208 209 208 210 214 219 223 226 229 230 227 232 243 250 258 266 272 276 281 287 293 299 304 306 305 308 316 320 322 323 324 325 327 329 331 333 334 335 335 335 335 334 334 335 335 334 334 333 333 333 333
256 266 274 272 259 247 240 231 226 228 225 207 202 207 193 175 175 175 167 170 178 183 185 186 187 193 203 205 205 208 212 210 207 203 204 206 210 216 218 218 219 217 217 221 229 241 250 256 263 270 274 277 282 285 290 295 299 304 308 313 318 321 322 324 326 328 330 333 334 335 336 336 336 336 337 336 336 337 337 337 336 335 335 335 335
266 269 272 267 256 243 233 226 223 222 216 204 212 227 222 190 178 174 160 158 171 180 184 186 190 198 204 201 196 195 197 202 205 204 207 212 215 213 209 208 209 212 218 228 237 246 254 260 264 268 272 277 284 295 310 315 313 310 314 318 320 324 327 328 329 331 332 334 335 336 337 338 338 339 339 338 337 337 336 336 336 335 334 335 335
268 263 261 253 241 227 219 219 220 218 212 204 204 210 207 188 175 167 164 168 177 185 188 188 190 194 194 190 190 192 195 203 210 211 211 210 206 202 203 205 209 217 224 231 239 247 257 261 259 261 270 281 292 303 315 319 315 314 320 325 325 328 331 330 330 332 333 335 337 338 340 340 340 340 340 337 336 336 335 335 336 336 336 336 337
253 224 216 212 206 200 200 206 209 205 200 199 198 194 188 185 184 182 182 186 190 194 197 196 196 200 199 195 197 202 204 206 208 206 204 203 200 202 205 207 213 222 230 239 246 251 256 261 262 265 274 288 302 307 310 313 314 317 322 325 326 327 328 328 330 333 335 337 339 340 342 341 339 339 338 337 336 336 336 337 338 338 339 338 338
134 170 185 187 188 192 196 200 201 199 198 197 198 196 192 191 197 204 209 209 206 204 206 206 203 203 203 200 201 203 201 199 200 199 198 197 199 203 208 213 223 232 241 251 257 257 258 264 269 277 286 298 306 308 309 312 314 316 318 320 322 324 326 329 333 335 338 340 340 341 341 340 338 338 339 339 338 338 339 339 340 341 341 339 338
190 186 186 187 189 194 204 211 210 211 212 210 208 210 209 205 206 211 216 220 219 215 214 213 209 206 203 200 197 196 194 193 193 193 194 198 204 212 220 229 236 243 250 255 258 261 267 276 287 296 301 304 304 303 304 306 307 310 314 318 322 326 330 333 336 338 340 341 339 339 339 339 340 341 342 341 341 340 340 339 338 338 338 336 335
199 184 177 178 182 188 199 212 218 222 225 224 222 221 219 217 216 216 215 218 222 224 225 225 221 213 205 199 194 191 190 192 195 200 205 211 216 223 231 238 244 250 254 257 259 265 275 287 295 293 292 294 298 302 305 305 306 312 319 323 328 332 333 334 335 337 339 338 337 339 341 344 345 345 344 342 341 339 338 336 333 332 332 331 332
194 192 192 192 193 195 198 207 221 231 232 229 226 225 225 225 225 224 224 224 224 225 225 223 219 215 209 205 202 199 199 203 208 214 220 225 230 238 243 246 249 251 254 259 265 269 273 274 271 273 282 292 300 306 309 310 314 322 326 328 329 331 331 331 333 336 338 339 340 342 344 345 347 346 344 341 338 335 334 331 328 327 328 329 332
202 206 208 208 208 209 212 217 226 232 232 229 227 228 230 231 230 230 231 231 229 227 223 217 213 212 210 209 211 212 213 217 220 227 234 238 242 246 249 250 252 254 253 254 258 259 258 258 262 274 288 299 306 310 313 316 319 322 322 322 322 323 327 332 336 338 339 339 342 344 343 344 345 346 343 339 335 332 329 326 325 326 328 330 332
208 211 212 214 215 215 219 223 225 227 228 228 228 230 231 232 232 231 231 231 230 227 222 217 214 214 213 213 215 218 222 227 230 235 240 243 244 248 250 251 251 251 248 247 250 255 259 266 280 295 303 307 309 310 311 313 314 313 312 315 320 327 334 338 340 340 339 338 341 344 344 343 344 345 342 338 333 329 326 324 325 328 329 331 332
211 214 215 218 220 220 222 225 225 227 228 228 229 231 229 228 229 229 226 226 226 223 220 218 219 219 221 222 221 221 224 229 234 238 242 244 245 247 250 250 252 252 252 252 256 265 275 285 296 302 304 305 306 307 307 309 311 313 318 324 330 336 340 339 338 339 339 338 340 345 345 344 343 344 341 336 331 327 324 325 327 330 331 332 333
213 216 218 222 225 226 227 229 230 230 229 228 230 230 227 226 228 225 220 221 224 223 222 223 223 223 226 228 227 227 230 232 235 240 245 247 249 251 253 257 259 259 255 253 256 264 275 287 294 299 303 305 305 305 308 311 314 318 324 328 332 336 338 337 335 337 339 340 341 344 345 343 342 343 340 334 328 326 325 327 330 332 333 333 333
221 223 224 227 228 228 232 236 235 232 230 229 229 227 223 224 227 225 221 221 223 223 224 226 225 222 224 227 227 228 232 235 238 243 248 252 255 256 258 261 262 258 253 251 252 259 269 282 289 294 300 302 301 303 308 311 314 319 324 328 332 334 335 336 335 336 339 340 341 343 344 342 340 341 340 335 329 328 329 330 332 334 334 334 334
230 232 232 234 234 234 237 240 239 236 233 231 230 227 225 224 226 227 226 224 224 224 226 228 226 223 224 228 229 231 235 238 240 244 250 256 259 258 257 257 257 256 257 260 263 268 276 286 293 300 305 302 300 305 308 309 313 321 327 332 334 334 333 334 334 335 338 340 341 342 343 341 339 338 339 337 334 332 332 333 334 335 335 336 338
234 237 239 242 245 246 247 248 246 244 240 236 233 231 229 229 230 231 231 229 227 225 226 228 228 226 227 229 230 231 236 240 242 247 254 260 263 263 263 262 260 261 266 270 273 278 284 289 295 303 307 305 305 308 309 310 316 324 330 333 333 331 330 332 334 335 337 339 340 341 341 341 339 338 338 339 338 335 333 333 335 336 337 338 340
232 237 243 247 250 252 254 255 252 249 246 242 239 237 234 231 232 234 236 237 234 228 228 231 232 229 228 227 226 229 237 244 250 256 261 265 269 271 272 270 268 269 271 271 271 274 280 286 294 303 307 304 304 306 306 310 318 324 327 329 330 328 327 330 333 335 337 338 339 340 340 340 340 339 339 339 337 334 332 333 335 338 339 339 342
233 234 240 247 251 252 254 255 255 253 251 248 247 244 240 235 233 234 239 243 242 239 241 243 241 237 234 230 225 228 240 250 257 260 261 264 270 273 271 269 270 272 272 269 266 268 275 285 295 304 305 301 300 302 305 311 319 322 322 325 326 325 325 328 331 335 336 336 338 339 339 339 339 339 338 337 334 332 332 334 335 337 340 341 344
240 237 235 240 246 252 254 255 255 254 254 253 249 245 241 237 235 233 236 243 248 249 252 254 254 252 250 245 239 237 243 251 256 258 260 261 264 266 266 268 271 274 272 269 268 270 275 284 292 298 297 295 296 299 304 310 316 318 317 319 321 323 325 328 330 333 336 336 337 338 339 338 338 338 337 335 333 332 333 334 335 337 339 343 347
243 244 241 238 239 244 250 253 253 252 253 253 251 247 243 242 240 236 234 238 242 241 245 254 260 261 258 257 254 251 250 251 252 254 257 259 259 260 263 268 272 274 272 270 270 271 274 280 287 292 294 295 297 299 302 308 312 313 313 316 319 322 324 327 329 331 334 335 336 338 339 338 337 336 335 333 332 332 333 334 335 336 339 344 348
238 244 247 247 244 242 244 247 248 247 246 245 245 245 246 249 253 253 249 247 244 238 238 248 256 258 253 252 254 253 252 250 249 250 253 255 255 257 262 268 272 272 270 269 270 272 274 277 283 289 293 296 297 298 300 305 307 307 310 315 318 320 322 325 328 330 332 334 336 338 339 338 336 334 333 332 331 332 334 336 336 337 340 343 346
237 239 244 249 250 248 246 246 245 244 242 239 236 235 238 242 250 258 259 257 253 246 239 240 248 254 253 252 254 255 251 247 246 247 249 249 249 254 262 268 271 270 269 267 267 269 271 274 280 287 293 295 295 296 300 304 305 305 308 312 316 317 319 323 327 328 330 333 336 339 340 338 336 334 332 331 332 333 336 338 338 339 342 343 343
240 239 241 244 247 249 249 249 247 245 243 240 236 234 235 237 240 246 252 256 260 261 249 236 237 245 252 254 257 259 257 252 251 253 252 248 247 252 260 265 267 267 266 266 267 268 269 272 277 285 290 292 293 295 298 301 303 305 308 312 314 314 316 320 324 327 329 333 338 340 339 337 335 333 332 332 332 334 338 341 342 341 342 342 341
241 240 240 242 244 245 246 249 250 248 246 244 240 238 237 236 236 238 242 250 260 265 258 240 233 239 247 252 255 259 261 260 258 258 256 251 249 253 260 266 267 264 263 266 269 270 270 271 276 281 287 291 295 297 296 297 299 303 307 310 311 311 313 317 322 326 330 335 338 339 338 336 334 333 332 331 331 334 339 342 341 340 340 338 337
Height
3176 3177 3178 3179 3181 3182 3183 3184 3186 3187 3188 3189 3191 3192 3193 3194 3195 3196 3197 3198 3199 3200 3200 3201 3201 3202 3202 3203 3203 3204 3205 3206 3207 3207 3208 3208 3208 3209 3209 3210 3210 3211 3212 3212 3213 3213 3213 3213 3213 3213 3213 3213 3213 3213 3213 3212 3211 3211 3211 3210 3210 3209 3208 3207 3206 3206 3206 3204 3202 3201 3201 3200 3199 3199 3198 3197 3195 3194 3193 3193 3193 3192 3191 3190 3189
3175 3176 3177 3178 3179 3181 3182 3183 3184 3185 3187 3188 3189 3191 3192 3193 3194 3195 3196 3197 3198 3199 3200 3200 3201 3201 3202 3202 3203 3204 3205 3205 3206 3207 3207 3207 3208 3208 3208 3209 3209 3209 3210 3211 3211 3211 3212 3211 3210 3211 3212 3212 3213 3212 3211 3210 3209 3208 3208 3208 3207 3207 3206 3206 3205 3204 3203 3202 3201 3200 3199 3198 3197 3197 3196 3194 3194 3193 3191 3190 3190 3190 3189 3188 3187
3174 3175 3176 3177 3178 3179 3180 3182 3183 3184 3185 3187 3188 3189 3190 3192 3193 3194 3195 3196 3197 3198 3199 3200 3200 3201 3201 3201 3202 3203 3204 3204 3205 3206 3206 3206 3206 3207 3208 3208 3208 3208 3209 3209 3210 3210 3210 3208 3208 3210 3212 3212 3211 3210 3209 3209 3208 3207 3206 3205 3205 3205 3205 3204 3203 3201 3200 3199 3198 3198 3197 3196 3195 3194 3193 3192 3192 3191 3190 3188 3188 3188 3186 3185 3185
3173 3173 3175 3176 3177 3178 3179 3180 3181 3183 3184 3185 3187 3188 3189 3190 3192 3193 3194 3195 3196 3197 3198 3198 3199 3200 3200 3201 3201 3201 3202 3203 3203 3204 3205 3205 3206 3206 3207 3207 3207 3207 3207 3208 3208 3208 3207 3207 3208 3209 3209 3209 3209 3208 3208 3208 3207 3205 3204 3203 3203 3203 3203 3202 3200 3198 3197 3196 3196 3195 3194 3194 3193 3192 3191 3190 3190 3189 3188 3186 3185 3185 3184 3183 3183
3172 3172 3173 3174 3175 3176 3177 3178 3180 3181 3182 3184 3185 3186 3188 3189 3190 3192 3193 3194 3195 3196 3197 3197 3198 3199 3199 3200 3200 3200 3200 3201 3201 3202 3203 3203 3204 3205 3206 3206 3206 3206 3207 3206 3205 3205 3206 3208 3208 3206 3206 3207 3207 3207 3206 3205 3204 3203 3202 3201 3201 3200 3200 3199 3197 3196 3195 3194 3193 3193 3192 3191 3190 3190 3189 3188 3188 3187 3185 3183 3183 3182 3182 3182 3181
3170 3171 3172 3172 3173 3174 3175 3177 3178 3179 3181 3182 3184 3185 3187 3188 3189 3190 3192 3193 3194 3195 3196 3196 3197 3198 3198 3199 3199 3198 3198 3199 3200 3200 3201 3202 3203 3204 3204 3205 3205 3205 3205 3204 3203 3205 3207 3206 3205 3204 3205 3205 3204 3204 3203 3202 3201 3200 3199 3199 3199 3197 3197 3196 3195 3193 3192 3192 3191 3191 3190 3189 3187 3187 3186 3186 3185 3184 3182 3181 3181 3180 3179 3179 3179
3168 3169 3170 3170 3171 3172 3173 3175 3176 3178 3179 3181 3182 3183 3185 3186 3188 3189 3190 3191 3192 3193 3194 3195 3196 3197 3197 3197 3197 3197 3197 3198 3199 3200 3200 3201 3201 3202 3203 3203 3203 3203 3203 3202 3203 3204 3204 3203 3202 3203 3203 3202 3201 3201 3201 3200 3199 3198 3197 3196 3195 3194 3194 3193 3192 3190 3189 3189 3188 3188 3187 3186 3185 3184 3183 3182 3182 3181 3180 3179 3178 3177 3177 3177 3176
3167 3167 3167 3168 3169 3171 3172 3173 3174 3176 3178 3179 3181 3182 3183 3185 3186 3188 3189 3190 3191 3192 3193 3194 3194 3195 3196 3195 3195 3195 3196 3197 3198 3199 3199 3199 3200 3200 3201 3201 3201 3201 3200 3201 3202 3201 3201 3201 3201 3200 3200 3199 3199 3199 3199 3198 3196 3195 3194 3193 3192 3191 3190 3189 3188 3187 3187 3186 3186 3185 3185 3183 3182 3181 3181 3180 3179 3178 3178 3177 3176 3175 3175 3175 3173
3162 3163 3164 3165 3167 3169 3170 3171 3172 3174 3175 3177 3179 3180 3181 3183 3185 3186 3186 3187 3188 3190 3191 3192 3192 3193 3193 3193 3193 3194 3195 3196 3197 3197 3197 3198 3198 3198 3199 3199 3199 3200 3199 3200 3200 3199 3199 3200 3199 3198 3197 3197 3197 3197 3197 3195 3194 3192 3191 3191 3190 3188 3188 3186 3185 3184 3184 3184 3183 3183 3182 3181 3180 3179 3178 3177 3176 3176 3176 3175 3174 3173 3172 3172 3171
3158 3160 3161 3162 3164 3166 3168 3169 3170 3172 3173 3174 3176 3178 3179 3181 3183 3184 3184 3185 3186 3187 3188 3189 3190 3190 3189 3190 3192 3194 3195 3195 3195 3195 3195 3196 3195 3196 3197 3197 3197 3198 3198 3198 3198 3197 3197 3197 3196 3195 3195 3195 3194 3195 3194 3193 3191 3190 3189 3188 3188 3187 3186 3186 3184 3184 3183 3182 3182 3181 3180 3179 3179 3177 3177 3176 3175 3174 3174 3173 3172 3171 3170 3169 3168
3153 3152 3154 3157 3160 3163 3165 3166 3167 3169 3171 3172 3174 3176 3178 3179 3181 3182 3183 3184 3185 3186 3187 3188 3188 3188 3187 3188 3190 3192 3193 3193 3193 3193 3193 3193 3193 3193 3194 3195 3195 3196 3196 3196 3196 3195 3194 3193 3193 3193 3193 3193 3192 3192 3191 3190 3189 3188 3187 3187 3186 3186 3185 3185 3184 3183 3182 3181 3180 3180 3179 3178 3177 3176 3175 3174 3173 3173 3172 3171 3170 3169 3168 3167 3166
3146 3149 3153 3156 3158 3160 3162 3163 3164 3166 3168 3169 3171 3173 3176 3177 3179 3180 3181 3183 3183 3184 3185 3185 3185 3184 3184 3186 3187 3189 3190 3191 3191 3191 3191 3191 3190 3190 3191 3193 3193 3193 3193 3193 3193 3192 3191 3191 3191 3191 3191 3190 3190 3189 3189 3188 3187 3186 3186 3185 3185 3185 3184 3184 3183 3182 3181 3180 3179 3178 3177 3176 3175 3174 3174 3173 3172 3171 3170 3169 3168 3167 3166 3165 3164
3144 3151 3155 3156 3157 3158 3159 3160 3161 3162 3164 3166 3167 3169 3172 3174 3176 3177 3179 3180 3181 3182 3183 3183 3182 3181 3181 3183 3185 3186 3188 3189 3189 3189 3189 3189 3188 3189 3190 3191 3191 3191 3191 3190 3190 3190 3189 3189 3189 3189 3189 3188 3188 3187 3187 3186 3185 3185 3184 3184 3184 3183 3183 3182 3181 3180 3179 3178 3177 3177 3176 3175 3174 3173 3172 3171 3170 3169 3169 3168 3167 3166 3164 3163 3162
3144 3150 3152 3152 3153 3154 3155 3157 3157 3159 3160 3160 3162 3165 3168 3171 3173 3175 3175 3176 3177 3179 3179 3179 3179 3179 3179 3181 3183 3184 3186 3187 3187 3187 3187 3187 3187 3187 3188 3188 3188 3188 3188 3188 3188 3188 3187 3187 3187 3187 3186 3186 3186 3186 3185 3185 3184 3184 3183 3183 3182 3182 3181 3180 3180 3179 3178 3177 3176 3175 3174 3173 3172 3171 3170 3170 3169 3168 3167 3166 3166 3165 3163 3161 3159
3145 3148 3148 3149 3149 3149 3151 3152 3152 3154 3154 3153 3156 3160 3163 3167 3171 3172 3172 3173 3175 3176 3177 3177 3178 3177 3177 3179 3181 3182 3183 3184 3184 3184 3184 3185 3185 3186 3186 3186 3186 3186 3186 3186 3186 3186 3185 3185 3185 3185 3185 3184 3184 3184 3183 3183 3183 3182 3182 3181 3181 3180 3179 3179 3178 3177 3176 3176 3175 3174 3173 3172 3171 3170 3169 3168 3167 3167 3166 3165 3164 3163 3162 3159 3157
3142 3143 3143 3143 3143 3143 3146 3147 3147 3148 3147 3147 3152 3157 3160 3163 3165 3166 3168 3172 3173 3173 3174 3175 3176 3176 3177 3178 3179 3180 3180 3181 3181 3181 3182 3183 3184 3184 3184 3184 3184 3184 3183 3183 3183 3184 3184 3184 3184 3183 3183 3183 3182 3182 3182 3182 3181 3181 3181 3180 3179 3178 3178 3177 3176 3176 3175 3174 3173 3172 3172 3171 3170 3169 3168 3167 3167 3166 3165 3164 3163 3162 3161 3159 3156
3136 3137 3137 3138 3137 3138 3141 3142 3143 3143 3141 3142 3148 3154 3156 3158 3158 3159 3164 3168 3169 3169 3170 3172 3172 3173 3174 3175 3175 3176 3177 3178 3178 3178 3179 3180 3181 3181 3181 3181 3182 3182 3182 3181 3181 3182 3182 3182 3182 3181 3181 3181 3181 3181 3180 3180 3180 3179 3179 3178 3177 3177 3176 3175 3175 3174 3173 3173 3172 3171 3170 3169 3169 3168 3167 3166 3165 3165 3164 3163 3162 3161 3159 3158 3156
3132 3133 3133 3133 3133 3134 3136 3138 3138 3138 3137 3139 3144 3148 3151 3153 3153 3154 3159 3164 3164 3164 3165 3167 3168 3169 3169 3170 3171 3173 3174 3174 3175 3176 3176 3177 3177 3178 3178 3179 3179 3179 3179 3179 3179 3179 3179 3179 3179 3179 3179 3179 3179 3179 3179 3178 3178 3178 3177 3177 3176 3175 3175 3174 3174 3173 3172 3171 3171 3170 3169 3169 3168 3167 3166 3165 3164 3163 3162 3161 3160 3159 3157 3156 3154
3129 3129 3129 3130 3130 3131 3133 3134 3134 3134 3135 3138 3141 3144 3146 3149 3150 3152 3155 3158 3159 3159 3160 3162 3164 3164 3164 3165 3166 3168 3170 3171 3172 3172 3173 3173 3174 3175 3175 3176 3176 3176 3176 3177 3177 3176 3176 3176 3176 3177 3177 3177 3178 3178 3177 3177 3176 3176 3176 3175 3175 3174 3174 3173 3172 3172 3171 3170 3170 3169 3168 3167 3167 3166 3165 3164 3163 3161 3160 3159 3158 3156 3155 3153 3151
3126 3126 3126 3127 3128 3128 3130 3131 3132 3132 3133 3136 3138 3140 3142 3145 3147 3148 3150 3152 3154 3155 3157 3159 3159 3160 3161 3162 3163 3164 3166 3168 3168 3169 3170 3171 3171 3172 3172 3173 3173 3173 3174 3174 3174 3174 3174 3174 3175 3175 3176 3176 3176 3176 3176 3176 3175 3175 3175 3174 3174 3173 3172 3172 3171 3171 3170 3169 3168 3167 3167 3166 3165 3164 3163 3162 3161 3160 3158 3157 3155 3154 3152 3150 3149
3125 3125 3125 3126 3126 3127 3128 3129 3130 3131 3132 3133 3134 3135 3138 3140 3142 3145 3146 3148 3149 3151 3153 3155 3156 3158 3159 3160 3161 3162 3163 3165 3166 3166 3167 3169 3170 3170 3170 3170 3171 3171 3172 3172 3172 3172 3173 3173 3174 3174 3174 3174 3174 3174 3175 3174 3174 3174 3173 3173 3172 3172 3171 3171 3170 3169 3169 3168 3167 3166 3165 3165 3164 3163 3162 3161 3159 3158 3156 3155 3153 3151 3149 3147 3145
3126 3126 3126 3126 3126 3127 3127 3128 3129 3130 3131 3132 3132 3132 3134 3136 3138 3141 3143 3144 3145 3147 3150 3151 3153 3155 3157 3158 3159 3160 3161 3163 3164 3165 3166 3167 3168 3168 3169 3169 3170 3170 3171 3171 3171 3171 3172 3172 3172 3173 3173 3173 3173 3173 3173 3173 3173 3172 3172 3172 3171 3171 3170 3169 3169 3168 3167 3167 3166 3165 3164 3163 3162 3161 3159 3158 3157 3155 3153 3152 3150 3148 3146 3143 3141
3127 3127 3127 3127 3127 3127 3127 3129 3130 3131 3131 3131 3131 3132 3133 3134 3136 3138 3138 3139 3142 3144 3146 3148 3150 3152 3154 3156 3157 3159 3161 3162 3163 3164 3165 3166 3166 3167 3168 3168 3169 3170 3170 3170 3170 3170 3170 3171 3171 3171 3172 3172 3172 3172 3172 3172 3171 3171 3171 3171 3170 3169 3169 3168 3167 3167 3166 3165 3164 3163 3162 3161 3160 3158 3157 3156 3154 3152 3151 3149 3147 3145 3143 3141 3138
3129 3129 3129 3129 3128 3129 3129 3130 3131 3132 3132 3132 3132 3133 3133 3134 3136 3137 3137 3138 3142 3144 3146 3148 3149 3150 3153 3155 3156 3158 3160 3161 3162 3163 3164 3165 3165 3166 3166 3167 3168 3168 3169 3169 3169 3169 3169 3169 3170 3170 3171 3171 3171 3171 3171 3170 3170 3170 3170 3169 3168 3168 3167 3167 3166 3165 3165 3164 3163 3161 3160 3159 3157 3156 3155 3153 3151 3149 3148 3146 3144 3142 3140 3138 3136
3130 3130 3130 3131 3131 3131 3131 3132 3132 3133 3133 3134 3134 3134 3135 3136 3137 3138 3140 3142 3144 3146 3147 3148 3150 3151 3153 3154 3156 3158 3159 3160 3161 3162 3163 3164 3164 3164 3165 3165 3166 3167 3167 3167 3168 3168 3168 3168 3169 3169 3170 3170 3170 3170 3169 3169 3169 3168 3168 3167 3167 3166 3166 3165 3165 3164 3163 3162 3161 3159 3158 3156 3155 3153 3152 3151 3150 3148 3146 3144 3142 3140 3138 3136 3134
3131 3131 3132 3132 3133 3133 3134 3134 3134 3134 3135 3135 3135 3136 3137 3138 3139 3140 3142 3144 3146 3147 3148 3149 3151 3152 3153 3155 3156 3157 3158 3159 3160 3161 3162 3162 3163 3163 3163 3164 3165 3165 3166 3166 3167 3167 3167 3167 3168 3168 3168 3168 3168 3168 3168 3167 3167 3167 3166 3166 3165 3165 3164 3164 3163 3162 3161 3160 3159 3157 3156 3154 3152 3151 3150 3149 3148 3146 3144 3142 3140 3138 3136 3133 3131
3131 3131 3132 3133 3134 3135 3136 3136 3136 3136 3136 3136 3136 3137 3137 3139 3140 3141 3143 3145 3146 3147 3149 3150 3151 3152 3153 3154 3155 3156 3157 3158 3159 3160 3161 3161 3162 3162 3163 3163 3164 3164 3165 3165 3166 3166 3166 3166 3166 3166 3166 3166 3166 3166 3166 3166 3166 3165 3165 3164 3164 3163 3163 3162 3161 3160 3159 3158 3156 3155 3154 3152 3150 3149 3147 3146 3145 3143 3141 3139 3137 3135 3132 3130 3128
3130 3131 3133 3134 3135 3136 3137 3137 3137 3138 3138 3138 3138 3138 3139 3140 3141 3142 3144 3145 3146 3147 3148 3150 3151 3152 3152 3153 3155 3156 3157 3158 3158 3159 3160 3161 3161 3161 3162 3162 3163 3163 3164 3164 3164 3165 3165 3165 3165 3165 3165 3164 3164 3164 3164 3164 3164 3164 3163 3163 3163 3162 3161 3160 3159 3158 3157 3156 3155 3153 3152 3150 3149 3147 3145 3143 3141 3140 3138 3136 3133 3131 3128 3126 3124
3132 3132 3133 3134 3135 3135 3136 3137 3137 3137 3138 3139 3139 3140 3141 3141 3142 3142 3144 3145 3146 3147 3148 3149 3151 3151 3152 3153 3154 3155 3156 3157 3158 3158 3159 3160 3160 3160 3161 3162 3162 3162 3163 3163 3163 3164 3164 3164 3164 3163 3163 3163 3163 3163 3163 3163 3163 3163 3162 3161 3161 3160 3159 3158 3157 3156 3155 3154 3153 3151 3150 3148 3147 3145 3143 3140 3138 3136 3134 3132 3130 3128 3126 3124 3122
3131 3131 3132 3133 3134 3134 3134 3135 3136 3137 3137 3138 3139 3139 3140 3141 3142 3142 3143 3145 3146 3147 3148 3150 3151 3151 3152 3153 3154 3155 3156 3156 3157 3157 3158 3159 3159 3160 3160 3161 3161 3162 3162 3162 3163 3163 3163 3163 3163 3162 3162 3162 3162 3162 3162 3161 3161 3161 3161 3160 3159 3158 3157 3156 3155 3154 3153 3152 3151 3149 3148 3146 3144 3142 3140 3138 3135 3133 3131 3130 3128 3126 3124 3122 3120
3128 3129 3130 3132 3133 3133 3134 3135 3136 3136 3137 3137 3138 3139 3140 3141 3142 3142 3143 3145 3146 3147 3148 3149 3150 3150 3151 3152 3153 3154 3155 3155 3156 3156 3157 3158 3158 3159 3159 3160 3160 3161 3161 3161 3162 3162 3161 3162 3162 3161 3161 3161 3160 3160 3160 3160 3159 3159 3158 3158 3157 3156 3155 3154 3153 3152 3151 3150 3149 3147 3145 3143 3141 3139 3138 3136 3134 3132 3130 3128 3126 3124 3122 3120 3118
3127 3128 3129 3131 3132 3133 3134 3134 3135 3136 3137 3137 3138 3139 3140 3141 3142 3142 3143 3145 3146 3147 3147 3148 3149 3150 3151 3152 3152 3153 3154 3154 3155 3156 3156 3157 3158 3158 3159 3159 3160 3160 3160 3160 3160 3161 3161 3161 3161 3160 3160 3160 3159 3159 3159 3159 3158 3157 3157 3156 3156 3155 3154 3153 3152 3150 3149 3148 3146 3145 3143 3141 3139 3138 3136 3134 3132 3129 3127 3125 3123 3122 3120 3118 3116
3127 3128 3129 3131 3132 3132 3134 3135 3135 3136 3137 3137 3138 3139 3140 3141 3142 3142 3143 3144 3145 3146 3146 3147 3148 3150 3150 3151 3152 3153 3153 3154 3154 3155 3156 3156 3157 3157 3158 3158 3158 3159 3159 3159 3159 3159 3159 3159 3159 3159 3159 3159 3159 3158 3157 3157 3157 3156 3155 3155 3154 3153 3152 3151 3150 3149 3147 3146 3144 3143 3141 3140 3138 3136 3134 3131 3129 3126 3124 3122 3121 3119 3118 3116 3114
3128 3129 3130 3130 3131 3132 3134 3135 3135 3136 3137 3137 3138 3139 3140 3140 3141 3141 3142 3143 3144 3145 3146 3147 3148 3149 3150 3151 3151 3152 3152 3153 3154 3154 3155 3155 3156 3156 3156 3157 3157 3157 3158 3158 3158 3158 3158 3158 3158 3158 3158 3158 3158 3157 3157 3156 3155 3155 3154 3153 3152 3151 3150 3149 3148 3147 3145 3144 3143 3142 3140 3138 3135 3133 3130 3128 3126 3124 3122 3120 3118 3117 3116 3114 3112
3127 3128 3129 3130 3131 3132 3133 3134 3135 3136 3137 3137 3138 3138 3139 3139 3140 3140 3141 3142 3143 3144 3145 3146 3147 3148 3148 3149 3150 3151 3151 3152 3152 3153 3153 3154 3154 3155 3155 3155 3156 3156 3156 3156 3156 3156 3157 3157 3157 3157 3157 3157 3157 3156 3155 3155 3154 3153 3152 3151 3150 3149 3148 3147 3146 3146 3145 3143 3142 3140 3138 3135 3132 3130 3127 3125 3123 3121 3120 3118 3117 3115 3114 3112 3110
3126 3127 3128 3130 3131 3132 3133 3134 3134 3135 3136 3136 3137 3137 3138 3138 3139 3139 3140 3141 3142 3143 3144 3145 3145 3146 3147 3148 3149 3149 3150 3151 3151 3152 3152 3153 3153 3153 3153 3154 3154 3154 3155 3155 3155 3156 3156 3157 3157 3157 3156 3156 3155 3154 3153 3152 3151 3150 3149 3149 3148 3148 3147 3146 3145 3144 3143 3141 3139 3137 3134 3132 3130 3128 3126 3124 3122 3120 3118 3117 3115 3114 3112 3110 3108
3126 3127 3128 3129 3130 3131 3132 3133 3133 3134 3135 3135 3136 3136 3137 3137 3138 3139 3140 3140 3141 3142 3143 3144 3144 3145 3146 3147 3147 3148 3149 3149 3150 3150 3151 3151 3151 3152 3152 3152 3153 3153 3154 3154 3154 3155 3155 3156 3156 3155 3155 3154 3153 3152 3151 3150 3150 3149 3149 3148 3148 3147 3147 3145 3144 3142 3141 3139 3137 3135 3132 3130 3128 3126 3124 3122 3120 3118 3117 3115 3114 3112 3110 3108 3106
3125 3126 3127 3128 3129 3130 3131 3131 3132 3133 3133 3134 3134 3135 3136 3136 3137 3138 3139 3140 3140 3141 3142 3143 3143 3144 3145 3146 3146 3147 3148 3148 3149 3149 3149 3150 3150 3150 3151 3151 3152 3152 3153 3153 3153 3154 3154 3154 3154 3153 3152 3152 3151 3150 3149 3149 3149 3149 3148 3148 3147 3146 3144 3143 3142 3140 3139 3137 3135 3134 3131 3128 3126 3124 3122 3120 3119 3117 3115 3114 3112 3110 3108 3106 3104
3125 3126 3127 3128 3128 3129 3130 3130 3131 3132 3132 3133 3133 3134 3135 3135 3136 3137 3138 3139 3139 3140 3141 3142 3142 3143 3144 3145 3145 3146 3147 3147 3147 3148 3148 3149 3149 3150 3150 3150 3151 3151 3151 3151 3151 3151 3151 3151 3151 3151 3151 3150 3150 3149 3149 3148 3148 3147 3147 3146 3145 3143 3142 3141 3140 3139 3137 3135 3133 3131 3129 3126 3124 3123 3121 3119 3117 3115 3113 3112 3110 3108 3106 3104 3103
3125 3126 3127 3127 3128 3128 3129 3129 3130 3130 3131 3131 3132 3133 3133 3134 3134 3135 3137 3138 3138 3139 3140 3141 3141 3143 3144 3144 3145 3145 3146 3146 3146 3147 3147 3148 3148 3149 3149 3149 3149 3149 3150 3150 3150 3150 3150 3150 3150 3150 3149 3149 3148 3148 3147 3147 3146 3146 3145 3144 3143 3142 3141 3139 3138 3137 3135 3133 3131 3129 3127 3125 3123 3121 3120 3117 3115 3113 3112 3110 3108 3107 3105 3103 3101
3124 3125 3126 3126 3127 3128 3128 3128 3129 3130 3130 3130 3131 3132 3133 3133 3134 3134 3136 3136 3137 3138 3139 3140 3141 3142 3143 3143 3144 3144 3145 3145 3145 3146 3146 3146 3147 3147 3147 3147 3147 3147 3148 3148 3148 3149 3149 3149 3149 3148 3148 3147 3147 3146 3145 3145 3144 3144 3143 3142 3141 3140 3139 3138 3136 3135 3133 3132 3129 3127 3125 3123 3121 3119 3118 3116 3114 3112 3110 3108 3107 3105 3104 3102 3100
3123 3123 3124 3125 3125 3126 3127 3127 3128 3128 3129 3129 3130 3131 3131 3132 3133 3133 3134 3135 3136 3137 3138 3139 3140 3141 3141 3142 3142 3143 3143 3143 3144 3144 3145 3145 3145 3145 3145 3146 3146 3146 3146 3146 3147 3147 3147 3147 3146 3146 3146 3146 3145 3144 3144 3143 3143 3142 3141 3140 3139 3138 3137 3136 3134 3133 3131 3130 3128 3126 3124 3122 3119 3117 3116 3114 3112 3110 3108 3107 3105 3104 3102 3100 3099
3121 3122 3123 3123 3124 3124 3125 3126 3126 3127 3127 3128 3129 3129 3130 3131 3131 3132 3132 3133 3135 3136 3136 3137 3138 3139 3140 3140 3141 3141 3141 3142 3142 3142 3143 3143 3143 3143 3143 3143 3143 3143 3144 3144 3144 3145 3145 3144 3144 3144 3144 3143 3143 3142 3142 3141 3140 3140 3139 3138 3137 3136 3135 3134 3132 3131 3129 3127 3126 3124 3122 3120 3118 3116 3113 3112 3110 3108 3106 3105 3104 3102 3100 3099 3098
3120 3120 3121 3122 3122 3123 3124 3124 3125 3125 3126 3126 3127 3127 3128 3129 3130 3130 3130 3131 3133 3134 3135 3135 3136 3137 3138 3138 3139 3139 3139 3140 3140 3140 3140 3141 3141 3141 3141 3141 3141 3141 3141 3142 3143 3143 3143 3142 3142 3142 3142 3141 3141 3140 3140 3139 3138 3138 3137 3137 3136 3135 3133 3132 3131 3129 3127 3126 3124 3122 3120 3118 3116 3113 3111 3109 3108 3106 3105 3103 3102 3100 3099 3098 3097
3118 3119 3120 3120 3121 3121 3122 3122 3123 3124 3124 3125 3125 3126 3126 3127 3128 3128 3129 3129 3130 3131 3132 3132 3133 3134 3135 3136 3137 3137 3137 3138 3138 3138 3138 3139 3139 3139 3139 3139 3139 3139 3140 3140 3141 3141 3141 3140 3139 3140 3140 3139 3139 3138 3138 3137 3137 3136 3135 3135 3135 3134 3132 3131 3129 3128 3126 3124 3122 3120 3118 3116 3114 3112 3110 3108 3106 3105 3103 3102 3100 3099 3098 3097 3096
3116 3117 3118 3119 3119 3120 3120 3121 3121 3121 3122 3123 3123 3124 3124 3125 3126 3127 3127 3127 3128 3128 3129 3129 3130 3131 3132 3133 3134 3135 3136 3136 3136 3136 3136 3137 3137 3137 3137 3137 3137 3138 3138 3138 3138 3139 3138 3138 3138 3138 3138 3138 3137 3137 3136 3135 3134 3134 3134 3133 3133 3132 3131 3129 3128 3126 3125 3123 3121 3118 3116 3114 3112 3110 3108 3107 3105 3104 3102 3101 3099 3098 3097 3096 3095
3114 3115 3116 3117 3118 3118 3119 3119 3119 3120 3120 3121 3121 3122 3123 3123 3124 3125 3126 3126 3127 3127 3127 3127 3128 3129 3130 3131 3132 3133 3133 3134 3134 3134 3134 3135 3135 3135 3135 3135 3135 3135 3136 3135 3136 3136 3136 3136 3136 3136 3136 3135 3135 3134 3134 3133 3133 3132 3132 3132 3131 3130 3129 3128 3126 3124 3123 3121 3119 3117 3115 3112 3110 3108 3107 3105 3104 3103 3101 3100 3098 3097 3096 3096 3095
3112 3113 3113 3114 3115 3116 3117 3117 3118 3118 3119 3119 3120 3120 3120 3121 3122 3123 3124 3125 3125 3126 3126 3126 3126 3127 3128 3129 3130 3130 3131 3132 3132 3132 3132 3133 3133 3132 3132 3132 3133 3133 3133 3133 3133 3133 3134 3134 3134 3134 3133 3133 3133 3132 3132 3132 3131 3131 3130 3130 3129 3128 3127 3126 3124 3122 3121 3119 3118 3115 3113 3111 3109 3107 3106 3104 3103 3102 3100 3099 3098 3097 3096 3095 3094
3110 3111 3111 3112 3112 3113 3114 3115 3116 3117 3117 3118 3118 3119 3119 3120 3121 3121 3121 3122 3123 3124 3125 3125 3124 3125 3126 3127 3127 3128 3129 3130 3130 3129 3130 3130 3130 3130 3129 3130 3130 3131 3131 3130 3130 3131 3131 3132 3132 3132 3131 3131 3131 3130 3129 3129 3129 3129 3129 3128 3128 3127 3125 3124 3122 3121 3119 3117 3115 3113 3111 3109 3107 3106 3105 3103 3102 3100 3099 3098 3097 3096 3095 3094 3093
3107 3108 3109 3109 3110 3111 3112 3112 3113 3114 3115 3116 3116 3117 3118 3119 3119 3120 3120 3120 3120 3122 3123 3124 3123 3123 3123 3124 3125 3126 3127 3127 3127 3127 3127 3128 3128 3127 3127 3127 3128 3128 3127 3127 3128 3129 3129 3129 3129 3130 3129 3129 3129 3128 3128 3127 3127 3127 3126 3126 3126 3125 3124 3123 3121 3119 3117 3115 3113 3111 3109 3107 3106 3105 3103 3102 3100 3099 3098 3097 3096 3095 3094 3094 3093
3104 3105 3106 3106 3107 3108 3109 3110 3111 3112 3113 3113 3114 3115 3116 3117 3118 3118 3118 3118 3118 3119 3120 3121 3121 3121 3121 3122 3122 3123 3123 3124 3124 3124 3125 3125 3125 3125 3124 3125 3125 3125 3125 3125 3125 3126 3127 3127 3127 3127 3127 3126 3126 3126 3126 3125 3125 3125 3124 3124 3123 3123 3122 3121 3119 3118 3116 3113 3111 3109 3108 3106 3105 3103 3102 3100 3099 3098 3097 3096 3095 3094 3094 3093 3092